Weather History for Bismarck, ND

Change the Weather History Date:

Sunday, November 25, 2012

  Actual Average Record
Temperature  
Mean Temperature 19 °F 24 °F  
Max Temperature 30 °F 34 °F 71 °F (1960)
Min Temperature 8 °F 14 °F -20 °F (1977)
Degree Days  
Heating Degree Days 46 41  
Month to date heating degree days 867 861  
Since 1 July heating degree days 1782 1773  
Cooling Degree Days 0 0  
Month to date cooling degree days 0 0  
Year to date cooling degree days 599 520  
Moisture  
Dew Point 13 °F    
Average Humidity 76    
Maximum Humidity 92    
Minimum Humidity 59    
Precipitation  
Precipitation 0.00 in 0.01 in 0.97 in (1908)
Month to date precipitation 1.07 0.62  
Year to date precipitation 14.27 17.27  
Snow  
Snow 0.00 in 0.30 in 9.50 in (1908)
Month to date snowfall 10.5 7.3  
Since 1 July snowfall 10.5 9.7  
Since 1 September snowfall 10.5 9.7  
Snow Depth 1.00 in    
Sea Level Pressure  
Sea Level Pressure 30.15 in    
Wind  
Wind Speed 10 mph (NW)    
Max Wind Speed 21 mph    
Max Gust Speed 26 mph    
Visibility 10 miles    
Events      
T = Trace of Precipitation, MM = Missing Value Source: NWS Daily Summary

Daily Weather History Graph

Daily Weather History Graph

Search for Another Location

Airport:

Trip Planner

Search our weather history database for the weather conditions in past years. The results will help you decide how hot, cold, wet, or windy it might be!

Date:

Astronomy

Nov. 25, 2012 Rise Set
Actual Time 8:00 AM CST 4:59 PM CST
Civil Twilight 7:26 AM CST 5:33 PM CST
Nautical Twilight 6:48 AM CST 6:11 PM CST
Astronomical Twilight 6:12 AM CST 6:47 PM CST
Moon 3:23 PM CST (11/25) 5:08 AM CST (11/25)
Length of Visible Light 10h 07m
Length of Day
8h 59m
Waxing Gibbous, 93% of the Moon is Illuminated
Nov 25
Waxing Gibbous
Nov 28
Full
Dec 6
Last Quarter
Dec 13
New
Dec 19
First Quarter

Hourly Weather History & Observations

Time (CST) Temp. Windchill Dew Point Humidity Pressure Visibility Wind Dir Wind Speed Gust Speed Precip Events Conditions
12:52 AM 23.0 °F 9.2 °F 19.0 °F 85% 30.06 in 10.0 mi NW 17.3 mph - N/A   Overcast
1:52 AM 24.1 °F 14.4 °F 19.0 °F 81% 30.05 in 10.0 mi NW 9.2 mph - N/A   Overcast
2:52 AM 25.0 °F 19.3 °F 19.9 °F 81% 30.05 in 10.0 mi West 4.6 mph - N/A   Overcast
3:52 AM 25.0 °F 13.6 °F 21.0 °F 85% 30.06 in 7.0 mi West 12.7 mph - N/A   Overcast
4:52 AM 25.0 °F 14.8 °F 19.9 °F 81% 30.06 in 10.0 mi West 10.4 mph - N/A   Overcast
5:29 AM 23.0 °F 13.9 °F 19.4 °F 86% 29.98 in 10.0 mi West 8.1 mph - N/A   Scattered Clouds
5:52 AM 21.9 °F 15.7 °F 19.0 °F 89% 30.04 in 10.0 mi SW 4.6 mph - N/A   Clear
6:52 AM 21.0 °F 11.4 °F 18.0 °F 88% 30.06 in 10.0 mi SW 8.1 mph - N/A   Clear
7:52 AM 23.0 °F 14.7 °F 19.0 °F 85% 30.06 in 10.0 mi WNW 6.9 mph - N/A   Clear
8:41 AM 23.0 °F 14.7 °F 19.4 °F 86% 30.01 in 10.0 mi West 6.9 mph - N/A   Mostly Cloudy
8:52 AM 24.1 °F 17.0 °F 19.0 °F 81% 30.09 in 10.0 mi WNW 5.8 mph - N/A   Overcast
9:52 AM 27.0 °F 21.6 °F 21.9 °F 81% 30.10 in 10.0 mi WNW 4.6 mph - N/A   Overcast
10:52 AM 28.9 °F 17.7 °F 21.9 °F 75% 30.12 in 10.0 mi NW 15.0 mph - N/A   Overcast
11:52 AM 26.1 °F 13.1 °F 18.0 °F 71% 30.13 in 10.0 mi North 17.3 mph - N/A   Overcast
12:52 PM 25.0 °F 12.2 °F 15.1 °F 66% 30.14 in 10.0 mi NNW 16.1 mph 23.0 mph N/A   Overcast
1:44 PM 24.8 °F 12.9 °F 14.0 °F 64% 30.06 in 10.0 mi NNW 13.8 mph - N/A   Scattered Clouds
1:52 PM 25.0 °F 14.2 °F 12.9 °F 60% 30.14 in 10.0 mi NNW 11.5 mph 19.6 mph N/A   Scattered Clouds
2:06 PM 24.8 °F 12.9 °F 12.2 °F 59% 30.07 in 10.0 mi NNW 13.8 mph 20.7 mph N/A   Mostly Cloudy
2:20 PM 24.8 °F 12.9 °F 12.2 °F 59% 30.07 in 10.0 mi NNW 13.8 mph - N/A   Scattered Clouds
2:52 PM 24.1 °F 13.7 °F 12.0 °F 60% 30.16 in 10.0 mi NW 10.4 mph - N/A   Clear
3:40 PM 23.0 °F 11.1 °F 10.4 °F 59% 30.09 in 10.0 mi NW 12.7 mph 20.7 mph N/A   Mostly Cloudy
3:52 PM 23.0 °F 11.1 °F 10.9 °F 60% 30.17 in 10.0 mi NNW 12.7 mph 20.7 mph N/A   Mostly Cloudy
4:11 PM 21.2 °F 8.3 °F 10.4 °F 63% 30.11 in 10.0 mi NW 13.8 mph - N/A   Partly Cloudy
4:52 PM 19.0 °F 6.8 °F 9.0 °F 65% 30.22 in 10.0 mi NNW 11.5 mph - N/A   Partly Cloudy
5:48 PM 17.6 °F 5.0 °F 8.6 °F 68% 30.15 in 10.0 mi North 11.5 mph - N/A   Mostly Cloudy
5:52 PM 18.0 °F 5.4 °F 9.0 °F 68% 30.25 in 10.0 mi NNW 11.5 mph - N/A   Mostly Cloudy
6:52 PM 15.1 °F 1.1 °F 3.9 °F 61% 30.29 in 10.0 mi North 12.7 mph - N/A   Partly Cloudy
7:52 PM 12.9 °F 0.7 °F 3.9 °F 67% 30.32 in 10.0 mi North 9.2 mph - N/A   Clear
8:52 PM 10.9 °F -0.8 °F 3.0 °F 70% 30.35 in 10.0 mi North 8.1 mph - N/A   Clear
9:52 PM 10.0 °F -2.9 °F 1.9 °F 70% 30.38 in 10.0 mi North 9.2 mph - N/A   Clear
10:52 PM 9.0 °F -4.2 °F 1.9 °F 73% 30.40 in 10.0 mi North 9.2 mph - N/A   Clear
11:52 PM 9.0 °F -3.2 °F 1.9 °F 73% 30.41 in 10.0 mi NNW 8.1 mph - N/A   Clear